N3NDE Weather Reports


Display with metric or nautical units.
time (UTC)temp
F
wind
direction
speed
MPH
gust
MPH
rain 1hr
in
rain 24hr
in
rain mn
in
humidity
%
barometer
mb
20260505113934 42 64 4.0 7.0 0.00 0.01 0.01 81 1011.7
20260505113430 42 91 3.0 6.0 0.00 0.01 0.01 81 1011.5
20260505112926 43 110 4.0 6.0 0.00 0.01 0.01 81 1011.6
20260505112424 43 88 2.0 2.0 0.00 0.01 0.01 80 1011.7
20260505111920 44 55 1.0 3.0 0.00 0.01 0.01 79 1011.7
20260505111415 44 69 0.0 0.0 0.07 0.01 0.01 81 1011.7
20260505110912 44 76 2.0 3.0 0.07 0.01 0.01 81 1011.6
20260505110409 44 74 3.0 4.0 0.00 0.00 0.00 80 1011.6
20260505101839 47 52 0.0 1.0 0.00 0.00 0.00 73 1011.2
20260505101334 47 143 1.0 2.0 0.00 0.00 0.00 72 1011.1
20260505100830 48 73 2.0 3.0 0.00 0.00 0.00 70 1011.1
20260505100327 48 81 1.0 2.0 0.00 0.00 0.00 68 1011.3
20260505095822 49 75 2.0 3.0 0.00 0.00 0.00 66 1011.5
20260505095321 49 103 2.0 3.0 0.00 0.00 0.00 63 1011.2
20260505094816 50 73 0.0 0.0 0.00 0.00 0.00 60 1011.6
20260505094313 50 79 1.0 1.0 0.00 0.00 0.00 58 1011.3
20260505093809 50 63 0.0 1.0 0.00 0.00 0.00 58 1011.1
20260505093307 50 67 1.0 2.0 0.00 0.00 0.00 57 1011.3
20260505092803 50 69 2.0 2.0 0.00 0.00 0.00 57 1011.1
20260505092304 50 71 0.0 0.0 0.00 0.00 0.00 57 1011.1
20260505091759 50 72 0.0 1.0 0.00 0.00 0.00 57 1011.2
20260505091256 50 67 1.0 2.0 0.00 0.00 0.00 58 1011.1
20260505090754 50 59 0.0 0.0 0.00 0.00 0.00 58 1011.1
20260505090252 50 59 1.0 2.0 0.00 0.00 0.00 58 1011.0
20260505085749 49 126 1.0 2.0 0.00 0.00 0.00 59 1011.2
20260505085247 49 65 1.0 2.0 0.00 0.00 0.00 60 1011.2
20260505084744 49 55 0.0 0.0 0.00 0.00 0.00 60 1011.5
20260505084243 49 48 0.0 0.0 0.00 0.00 0.00 60 1011.3
20260505083739 49 55 1.0 2.0 0.00 0.00 0.00 61 1011.3
20260505083236 49 51 0.0 0.0 0.00 0.00 0.00 62 1011.5
20260505082732 49 51 0.0 0.0 0.00 0.00 0.00 62 1011.3
20260505082230 49 57 0.0 0.0 0.00 0.00 0.00 62 1011.7
20260505081725 49 62 0.0 0.0 0.00 0.00 0.00 62 1011.7
20260505081223 49 62 0.0 0.0 0.00 0.00 0.00 62 1011.8
20260505080720 49 62 0.0 0.0 0.00 0.00 0.00 62 1011.7
20260505080215 49 70 0.0 0.0 0.00 0.00 0.00 62 1011.6
20260505075711 49 88 0.0 0.0 0.00 0.00 0.00 62 1011.7
20260505075209 50 93 1.0 2.0 0.00 0.00 0.00 62 1012.1
20260505074706 50 76 0.0 0.0 0.00 0.00 0.00 62 1011.7
20260505074203 50 91 2.0 2.0 0.00 0.00 0.00 62 1011.6
20260505073700 50 115 1.0 2.0 0.00 0.00 0.00 61 1011.8
20260505073158 50 172 2.0 2.0 0.00 0.00 0.00 61 1011.9
20260505072654 50 79 1.0 1.0 0.00 0.00 0.00 61 1012.1
20260505072150 50 154 3.0 3.0 0.00 0.00 0.00 61 1011.9
20260505071646 50 67 1.0 2.0 0.00 0.00 0.00 62 1012.2
20260505071144 50 174 2.0 3.0 0.00 0.00 0.00 62 1011.9
20260505070641 50 188 1.0 2.0 0.00 0.00 0.00 62 1011.9
20260505070137 50 72 0.0 0.0 0.00 0.00 0.00 62 1012.1
20260505065633 49 66 1.0 2.0 0.00 0.00 0.00 64 1011.8
20260505065130 48 64 0.0 0.0 0.00 0.00 0.00 66 1012.3
20260505064627 48 60 1.0 2.0 0.00 0.00 0.00 66 1011.9
20260505064125 48 42 0.0 0.0 0.00 0.00 0.00 65 1011.9
20260505063622 49 42 1.0 1.0 0.00 0.00 0.00 64 1012.2
20260505063118 49 52 1.0 1.0 0.00 0.00 0.00 65 1011.8
20260505062615 49 43 0.0 0.0 0.00 0.00 0.00 64 1012.1
20260505062112 49 35 0.0 0.0 0.00 0.00 0.00 63 1012.1
20260505061609 49 35 0.0 0.0 0.00 0.00 0.00 63 1011.9
20260505061107 49 34 1.0 1.0 0.00 0.00 0.00 62 1012.1
20260505060604 48 44 0.0 0.0 0.00 0.00 0.00 63 1011.8
20260505055556 48 29 1.0 1.0 0.00 0.00 0.00 63 1011.8
20260505055053 47 41 0.0 0.0 0.00 0.00 0.00 62 1011.8
20260505054550 47 47 1.0 1.0 0.00 0.00 0.00 63 1011.7
20260505054049 46 34 0.0 0.0 0.00 0.00 0.00 64 1011.9
20260505053545 47 43 1.0 1.0 0.00 0.00 0.00 63 1011.8
20260505053042 47 61 1.0 1.0 0.00 0.00 0.00 63 1011.5
20260505052539 47 28 2.0 2.0 0.00 0.00 0.00 62 1011.5
20260505052037 47 54 0.0 0.0 0.00 0.00 0.00 62 1011.7
20260505051533 47 67 2.0 2.0 0.00 0.00 0.00 61 1011.6
20260505051031 48 67 1.0 2.0 0.00 0.00 0.00 61 1011.7
20260505050529 48 47 0.0 0.0 0.00 0.00 0.00 61 1011.5
20260505041457 51 53 0.0 0.0 0.00 0.00 0.00 56 1010.9
20260505040954 52 60 1.0 1.0 0.00 0.00 0.00 56 1010.9
20260505040451 52 43 0.0 0.0 0.00 0.00 0.00 55 1011.0
20260505035948 52 42 0.0 0.0 0.00 0.00 0.00 55 1010.7
20260505035444 52 43 0.0 0.0 0.00 0.00 0.00 55 1010.9
20260505034942 52 43 0.0 0.0 0.00 0.00 0.00 56 1010.7
20260505034438 52 25 0.0 0.0 0.00 0.00 0.00 56 1010.6
20260505033935 52 25 0.0 0.0 0.00 0.00 0.00 55 1010.6
20260505033432 52 25 0.0 0.0 0.00 0.00 0.00 55 1010.6
20260505032930 52 25 0.0 0.0 0.00 0.00 0.00 55 1010.7
20260505032427 53 36 0.0 0.0 0.00 0.00 0.00 55 1010.7
20260505031923 53 36 0.0 0.0 0.00 0.00 0.00 53 1010.5
20260505031420 53 36 0.0 0.0 0.00 0.00 0.00 54 1010.6
20260505030917 53 36 0.0 0.0 0.00 0.00 0.00 53 1010.5
20260505030413 53 36 0.0 0.0 0.00 0.00 0.00 53 1010.7
20260505025909 54 36 0.0 0.0 0.00 0.00 0.00 52 1010.5
20260505025406 54 55 0.0 0.0 0.00 0.00 0.00 51 1010.7
20260505024905 54 55 0.0 0.0 0.00 0.00 0.00 50 1010.9
20260505024402 54 55 0.0 0.0 0.00 0.00 0.00 50 1010.7
20260505023859 55 57 0.0 0.0 0.00 0.00 0.00 49 1010.5
20260505023356 55 45 0.0 0.0 0.00 0.00 0.00 49 1010.5
20260505022853 55 42 0.0 0.0 0.00 0.00 0.00 49 1010.7
20260505022350 55 34 0.0 0.0 0.00 0.00 0.00 48 1010.9
20260505021848 55 36 0.0 0.0 0.00 0.00 0.00 48 1010.9
20260505021344 55 51 0.0 0.0 0.00 0.00 0.00 48 1010.4
20260505020840 55 116 2.0 4.0 0.00 0.00 0.00 48 1010.7
20260505020335 55 35 0.0 0.0 0.00 0.00 0.00 49 1010.5
20260505015832 56 36 0.0 0.0 0.00 0.00 0.00 49 1010.9
20260505015330 56 357 1.0 1.0 0.00 0.00 0.00 48 1010.7
20260505014827 56 53 1.0 1.0 0.00 0.00 0.00 48 1010.5
20260505014324 56 49 0.0 0.0 0.00 0.00 0.00 48 1010.7
20260505013820 56 252 1.0 1.0 0.00 0.00 0.00 48 1010.7
20260505013318 56 232 4.0 4.0 0.00 0.00 0.00 47 1011.1
20260505012816 56 204 3.0 3.0 0.00 0.00 0.00 48 1011.0
20260505012313 56 64 1.0 1.0 0.00 0.00 0.00 46 1010.7
20260505011809 57 73 1.0 1.0 0.00 0.00 0.00 45 1010.7
20260505011306 57 98 1.0 2.0 0.00 0.00 0.00 44 1010.7
20260505010802 58 109 1.0 2.0 0.00 0.00 0.00 43 1010.6
20260505010258 58 53 0.0 0.0 0.00 0.00 0.00 40 1010.7
20260505005754 58 58 0.0 0.0 0.00 0.00 0.00 40 1010.6
20260505005252 58 344 0.0 0.0 0.00 0.00 0.00 41 1010.6
20260505004749 59 329 2.0 2.0 0.00 0.00 0.00 40 1010.7
20260505004245 60 312 2.0 3.0 0.00 0.00 0.00 39 1010.6
20260505003742 60 353 2.0 3.0 0.00 0.00 0.00 40 1010.7
20260505003240 59 318 5.0 7.0 0.00 0.00 0.00 40 1010.6
20260505002736 60 336 4.0 4.0 0.00 0.00 0.00 39 1010.7
20260505002234 59 300 4.0 4.0 0.00 0.00 0.00 40 1011.0
20260505001731 61 354 2.0 2.0 0.00 0.00 0.00 40 1011.0
20260505001229 62 334 5.0 6.0 0.00 0.00 0.00 38 1011.1
20260505000725 61 351 3.0 3.0 0.00 0.00 0.00 40 1011.0
20260505000223 60 319 3.0 3.0 0.00 0.00 0.00 41 1011.0
20260504235719 61 322 4.0 4.0 0.00 0.00 0.00 40 1011.0
20260504235215 62 301 1.0 2.0 0.00 0.00 0.00 39 1011.1
20260504234713 62 329 3.0 3.0 0.00 0.00 0.00 40 1011.1
20260504234210 62 344 3.0 4.0 0.00 0.00 0.00 39 1011.1
20260504233706 59 329 2.0 2.0 0.00 0.00 0.00 42 1011.1
20260504233202 60 310 6.0 7.0 0.00 0.00 0.00 42 1011.2
20260504232700 60 295 6.0 7.0 0.00 0.00 0.00 42 1011.5
20260504232156 62 333 5.0 7.0 0.00 0.00 0.00 38 1011.2
20260504231653 64 252 6.0 8.0 0.00 0.00 0.00 38 1011.0
20260504231149 63 268 6.0 8.0 0.00 0.00 0.00 36 1011.0
20260504230646 62 350 5.0 6.0 0.00 0.00 0.00 37 1011.2
20260504230145 61 313 4.0 7.0 0.00 0.00 0.00 39 1011.5
20260504225643 62 257 6.0 7.0 0.00 0.00 0.00 38 1011.2
20260504225138 62 259 5.0 6.0 0.00 0.00 0.00 37 1011.6
20260504224635 63 286 8.0 10.0 0.00 0.00 0.00 38 1011.5
20260504224132 65 290 9.0 14.0 0.00 0.00 0.00 35 1011.5
20260504223629 63 185 5.0 7.0 0.00 0.00 0.00 36 1011.3
20260504223125 61 125 2.0 2.0 0.00 0.00 0.00 38 1011.8
20260504222622 60 179 4.0 6.0 0.00 0.00 0.00 43 1011.6
20260504222120 59 84 2.0 3.0 0.00 0.00 0.00 43 1011.5
20260504221616 59 159 1.0 3.0 0.00 0.00 0.00 44 1011.8
20260504221114 58 97 5.0 8.0 0.00 0.00 0.00 43 1011.7
20260504220610 58 70 2.0 2.0 0.00 0.00 0.00 44 1011.6
20260504220108 59 162 6.0 8.0 0.00 0.00 0.00 41 1011.7
20260504215603 60 167 4.0 8.0 0.00 0.00 0.00 37 1011.6
20260504215101 60 85 2.0 3.0 0.00 0.00 0.00 37 1011.8
20260504214557 61 162 3.0 4.0 0.00 0.00 0.00 37 1011.2
20260504214053 61 155 6.0 7.0 0.00 0.00 0.00 37 1011.3
20260504213550 62 111 1.0 1.0 0.00 0.00 0.00 37 1011.2
20260504213047 62 115 6.0 8.0 0.00 0.00 0.00 36 1011.0
20260504212543 64 161 4.0 7.0 0.00 0.00 0.00 36 1010.9
20260504212040 64 156 3.0 3.0 0.00 0.00 0.00 33 1011.1
20260504211537 64 66 4.0 4.0 0.00 0.00 0.00 31 1011.1
20260504211034 65 130 5.0 7.0 0.00 0.00 0.00 29 1010.7
20260504210531 65 109 2.0 6.0 0.00 0.00 0.00 31 1010.7
20260504210028 65 81 4.0 7.0 0.00 0.00 0.00 30 1011.0
20260504205526 64 134 2.0 4.0 0.00 0.00 0.00 33 1010.7
20260504205023 64 169 3.0 4.0 0.00 0.00 0.00 33 1010.7
20260504204521 63 165 3.0 4.0 0.00 0.00 0.00 34 1010.9
20260504204020 63 109 5.0 8.0 0.00 0.00 0.00 35 1011.0
20260504203518 63 35 2.0 2.0 0.00 0.00 0.00 35 1011.0
20260504203015 64 91 4.0 6.0 0.00 0.00 0.00 32 1011.2
20260504202510 65 105 4.0 4.0 0.00 0.00 0.00 31 1011.2
20260504202007 66 103 2.0 3.0 0.00 0.00 0.00 31 1011.3
20260504201504 66 39 2.0 3.0 0.00 0.00 0.00 29 1011.2
20260504201002 66 99 5.0 7.0 0.00 0.00 0.00 29 1011.2
20260504200458 66 106 5.0 6.0 0.00 0.00 0.00 30 1011.3
20260504195955 66 58 3.0 4.0 0.00 0.00 0.00 30 1011.5
20260504195451 65 78 4.0 7.0 0.00 0.00 0.00 29 1011.2
20260504194948 64 90 1.0 2.0 0.00 0.00 0.00 30 1011.3
20260504194444 64 131 3.0 4.0 0.00 0.00 0.00 31 1011.5
20260504193940 64 78 2.0 2.0 0.00 0.00 0.00 32 1011.3
20260504193437 63 324 1.0 2.0 0.00 0.00 0.00 32 1011.5
20260504192936 63 195 3.0 6.0 0.00 0.00 0.00 32 1011.7
20260504192432 63 184 5.0 7.0 0.00 0.00 0.00 33 1011.3
20260504191931 63 249 4.0 4.0 0.00 0.00 0.00 32 1011.3
20260504191429 63 260 5.0 6.0 0.00 0.00 0.00 32 1011.5
20260504190924 63 254 6.0 8.0 0.00 0.00 0.00 32 1011.5
20260504190420 63 242 5.0 6.0 0.00 0.00 0.00 34 1011.7
20260504185917 63 228 6.0 7.0 0.00 0.00 0.00 33 1011.6
20260504185414 63 293 4.0 4.0 0.00 0.00 0.00 33 1011.7
20260504184910 63 257 6.0 8.0 0.00 0.00 0.00 32 1011.6
20260504184406 63 283 6.0 8.0 0.00 0.00 0.00 34 1011.6
20260504183902 63 265 6.0 9.0 0.00 0.00 0.00 34 1011.3
20260504183400 64 273 9.0 11.0 0.00 0.00 0.00 33 1011.5
20260504182857 65 286 8.0 9.0 0.00 0.00 0.00 33 1011.9
20260504182354 66 255 9.0 11.0 0.00 0.00 0.00 33 1011.7
20260504181851 69 31 2.0 2.0 0.00 0.00 0.00 25 1011.3
20260504181348 69 307 3.0 3.0 0.00 0.00 0.00 25 1011.6
20260504180847 69 297 5.0 6.0 0.00 0.00 0.00 27 1011.8
20260504180345 69 341 2.0 3.0 0.00 0.00 0.00 28 1011.7
20260504175843 69 235 4.0 6.0 0.00 0.00 0.00 29 1011.7
20260504175339 68 268 3.0 4.0 0.00 0.00 0.00 30 1011.8
20260504174838 68 276 4.0 6.0 0.00 0.00 0.00 27 1011.8
20260504174335 68 25 1.0 1.0 0.00 0.00 0.00 29 1012.1
20260504173832 67 252 2.0 2.0 0.00 0.00 0.00 29 1012.3
20260504173328 66 321 1.0 2.0 0.00 0.00 0.00 33 1012.1
20260504172826 66 302 3.0 3.0 0.00 0.00 0.00 31 1012.3
20260504172322 66 187 4.0 6.0 0.00 0.00 0.00 33 1012.3
20260504171818 67 249 5.0 6.0 0.00 0.00 0.00 32 1012.3
20260504171315 67 269 2.0 3.0 0.00 0.00 0.00 34 1012.3
20260504170812 65 31 0.0 0.0 0.00 0.00 0.00 36 1012.4
20260504170309 65 301 3.0 4.0 0.00 0.00 0.00 35 1012.8
20260504160227 61 286 3.0 3.0 0.00 0.00 0.00 38 1012.9
20260504150653 55 23 0.0 0.0 0.00 0.00 0.00 40 1013.5
20260504150150 54 23 1.0 1.0 0.00 0.00 0.00 42 1013.6
20260504141119 51 22 0.0 1.0 0.00 0.00 0.00 42 1013.5
20260504140616 51 54 0.0 0.0 0.00 0.00 0.00 41 1013.9
20260504140111 51 38 0.0 0.0 0.00 0.00 0.00 40 1013.7
20260504130540 45 42 0.0 0.0 0.00 0.00 0.00 49 1013.6